Location: Clyde
(45.1830°S, 169.3170°E)
Time: 14:23:28
(UTC+13:00)

Resurs 01 Rocket - Visible Passes

Search period start: 07 December 2019 00:00
Search period end: 17 December 2019 00:00
Orbit: 634 x 645 km, 98.0° (Epoch: 06 December)

Date Brightness Start Highest point End Pass type
(mag) Time Alt. Az. Time Alt. Az. Time Alt. Az.
07 Dec 2.7 22:19:30 10° SE 22:23:22 27° E 22:26:40 13° NNE visible
07 Dec 3.3 23:55:50 10° S 23:59:52 32° WSW 00:03:51 10° NW visible
08 Dec 2.0 22:42:22 10° SSE 22:46:45 46° E 22:50:13 15° N visible
09 Dec 4.0 00:19:35 10° SSW 00:22:54 20° WSW 00:26:12 10° WNW visible
09 Dec 1.6 23:05:30 10° SSE 23:10:02 81° ENE 23:13:47 15° N visible
10 Dec 4.4 00:43:51 10° SSW 00:45:51 13° WSW 00:47:52 10° W visible
10 Dec 3.4 21:53:45 10° SE 21:56:22 15° E 21:58:58 10° NE visible
10 Dec 2.2 23:28:48 10° S 23:33:15 59° WSW 23:37:20 12° NNW visible
11 Dec 2.8 22:16:05 10° SE 22:19:51 25° E 22:23:20 11° NNE visible
11 Dec 3.1 23:52:16 10° S 23:56:23 35° WSW 00:00:26 10° NW visible
12 Dec 2.1 22:38:55 10° SSE 22:43:13 42° E 22:46:53 13° NNE visible
13 Dec 3.9 00:15:59 10° SSW 00:19:26 22° WSW 00:22:51 10° WNW visible
13 Dec 1.6 23:02:01 10° SSE 23:06:32 74° ENE 23:10:27 13° N visible
14 Dec 4.4 00:40:08 10° SSW 00:42:25 14° WSW 00:44:40 10° W visible
14 Dec 2.0 23:25:16 10° S 23:29:45 64° WSW 23:33:59 11° NNW visible
15 Dec 2.9 22:12:41 10° SE 22:16:18 23° E 22:19:52 10° NNE visible
15 Dec 3.0 23:48:44 10° S 23:52:54 38° WSW 23:57:01 10° NW visible
16 Dec 2.2 22:35:28 10° SSE 22:39:42 39° E 22:43:31 12° NNE visible
